This is the latest recevied weather packets stored in our database for station/object VE8SKI. If no packets are shown the sender has not sent any weather packets the latest 10 day(s).
| Time | Temp. | Humidity | Pressure | Rain* | Wind** | Luminosity | Snow |
|---|---|---|---|---|---|---|---|
| 1777249407 | 2.22° C | 56% | 1023.4 hPa | 0 mm | 2.24 m/s, 103° | - | - |
| 1777249104 | 1.67° C | 55% | 1023.4 hPa | 0 mm | 2.24 m/s, 105° | - | - |
| 1777248805 | 1.67° C | 56% | 1023.5 hPa | 0 mm | 1.79 m/s, 96° | - | - |
| 1777248505 | 1.67° C | 55% | 1023.4 hPa | 0 mm | 2.24 m/s, 143° | - | - |
| 1777248206 | 1.67° C | 55% | 1023.5 hPa | 0 mm | 2.68 m/s, 83° | - | - |
| 1777247906 | 1.67° C | 55% | 1023.5 hPa | 0 mm | 2.68 m/s, 101° | - | - |
| 1777247607 | 1.67° C | 55% | 1023.5 hPa | 0 mm | 2.24 m/s, 70° | - | - |
| 1777247305 | 1.67° C | 54% | 1023.5 hPa | 0 mm | 2.68 m/s, 90° | - | - |
| 1777247005 | 1.67° C | 53% | 1023.5 hPa | 0 mm | 1.79 m/s, 93° | - | - |
| 1777246706 | 1.67° C | 53% | 1023.5 hPa | 0 mm | 2.68 m/s, 91° | - | - |
| 1777246406 | 1.67° C | 52% | 1023.6 hPa | 0 mm | 3.13 m/s, 52° | - | - |
| 1777246106 | 1.67° C | 52% | 1023.6 hPa | 0 mm | 1.34 m/s, 143° | - | - |
| 1777245807 | 1.67° C | 52% | 1023.6 hPa | 0 mm | 2.68 m/s, 89° | - | - |
| 1777245505 | 1.67° C | 52% | 1023.6 hPa | 0 mm | 1.79 m/s, 97° | - | - |
| 1777245205 | 1.67° C | 51% | 1023.6 hPa | 0 mm | 2.24 m/s, 59° | - | - |
| 1777244906 | 1.67° C | 51% | 1023.6 hPa | 0 mm | 1.34 m/s, 152° | - | - |
| 1777244606 | 1.67° C | 50% | 1023.8 hPa | 0 mm | 2.68 m/s, 101° | - | - |
| 1777244306 | 1.67° C | 50% | 1023.6 hPa | 0 mm | 2.68 m/s, 114° | - | - |
| 1777244007 | 1.67° C | 50% | 1023.8 hPa | 0 mm | 2.24 m/s, 87° | - | - |
| 1777243705 | 2.22° C | 49% | 1023.9 hPa | 0 mm | 3.13 m/s, 117° | - | - |
| 1777243405 | 2.22° C | 50% | 1023.9 hPa | 0 mm | 1.79 m/s, 103° | - | - |
| 1777243106 | 1.67° C | 50% | 1024.1 hPa | 0 mm | 2.68 m/s, 82° | - | - |
| 1777242806 | 1.67° C | 51% | 1024.1 hPa | 0 mm | 2.24 m/s, 111° | - | - |
| 1777242507 | 1.67° C | 51% | 1024.1 hPa | 0 mm | 3.13 m/s, 89° | - | - |
* Rain latest hour (hover to see other rain measurements)
** Current wind speed in m/s (hover to see current wind gust speed)